Wind_Speed
23 21 19 17 14 11 11 10 8 7 6 7 7 8 9 9 9 9 9 10 10 11 11 10 10 11 11 11 11 12 12 12 11 10 8 7 6 5 7 7 5 4 2
24 23 20 17 15 13 13 13 10 7 7 7 8 8 9 10 11 11 11 11 10 11 12 12 11 11 12 13 13 12 12 11 10 9 9 8 7 7 6 6 6 4 3
27 23 19 17 16 15 16 13 10 8 7 8 8 7 8 11 13 15 15 15 14 13 13 13 13 13 12 12 14 14 13 12 11 10 10 9 7 7 7 8 7 5 5
23 20 22 19 14 14 19 14 12 8 8 7 6 7 8 11 14 16 17 17 16 16 16 15 15 14 14 13 13 15 14 12 12 11 10 10 7 8 8 9 8 7 6
17 18 21 18 19 22 23 16 14 11 9 8 8 7 10 13 17 19 20 20 20 19 19 19 18 17 16 15 15 14 15 14 12 12 11 11 9 10 8 9 9 9 8
18 24 22 20 19 23 25 18 15 12 10 10 10 11 12 14 17 20 21 22 22 20 20 21 21 21 19 19 17 16 15 15 14 12 13 12 11 11 10 12 11 11 10
18 21 24 23 22 24 19 17 15 14 13 13 14 15 16 16 19 22 23 23 22 22 21 22 24 23 22 22 20 20 18 16 16 14 14 13 12 13 12 15 14 15 14
20 21 23 23 22 17 17 17 17 16 16 16 16 17 18 19 22 24 25 24 23 24 22 22 24 26 25 24 23 23 22 19 18 17 16 15 15 15 15 16 14 12 14
19 20 20 18 17 18 18 19 19 19 18 18 19 20 21 22 24 25 24 24 23 23 24 23 24 26 27 27 27 26 26 24 22 19 19 18 18 17 16 18 18 15 14
19 18 17 18 19 20 21 21 20 19 19 19 21 23 24 25 26 26 24 23 23 22 23 23 24 26 27 28 29 29 28 29 26 24 22 21 21 21 19 18 19 18 18
18 20 21 21 21 22 21 21 20 21 20 22 23 25 26 27 28 27 26 24 23 24 24 25 25 25 28 29 30 30 30 32 31 29 27 25 25 24 23 21 20 21 20
16 20 21 21 21 22 21 21 21 22 23 24 25 27 29 30 28 27 28 27 26 26 27 28 29 27 28 28 30 32 33 32 32 32 31 30 30 29 27 26 24 23 23
10 14 16 18 19 21 22 23 23 24 25 26 28 29 30 29 30 29 29 29 30 30 30 30 31 33 32 31 31 31 32 35 36 36 33 32 34 34 32 31 29 26 25
9 11 13 16 18 20 22 24 25 26 28 29 30 29 30 31 31 31 32 32 32 33 33 33 34 35 35 36 35 34 34 34 35 35 35 36 37 37 36 36 35 32 28
10 11 14 17 20 22 24 26 28 29 29 29 30 31 32 33 34 34 34 35 35 36 37 37 36 37 38 38 39 39 38 38 37 37 36 35 35 39 40 40 39 38 35
10 12 14 16 18 20 23 25 27 27 27 29 29 30 32 33 34 35 36 37 38 40 40 41 41 40 38 39 40 41 42 41 40 40 39 37 36 37 39 42 42 41 40
11 13 16 17 18 20 22 23 24 25 26 27 28 29 30 31 33 35 38 39 40 41 41 41 42 43 43 42 40 41 43 44 44 42 41 41 39 39 39 41 45 42 42
16 17 19 19 19 20 20 20 21 23 25 26 27 29 31 32 33 34 35 37 38 39 41 42 43 43 44 45 45 44 44 44 43 44 44 43 42 42 41 41 43 47 45
21 20 21 21 20 21 20 20 21 22 24 26 27 28 29 30 31 32 33 34 36 38 40 42 43 45 45 45 47 47 46 45 45 46 46 46 45 44 44 43 44 46 48
23 23 21 20 19 20 20 21 22 23 25 26 25 25 24 26 28 30 31 32 33 35 37 39 41 42 44 46 47 47 46 47 47 46 47 47 46 47 47 46 45 46 48
26 23 19 17 17 16 17 19 22 24 24 23 23 24 25 26 27 27 28 29 30 31 33 36 38 40 41 45 46 46 44 46 46 47 47 47 48 47 48 49 48 48 49
26 22 17 15 16 17 19 22 21 21 23 23 22 22 22 24 26 27 27 28 29 29 30 31 33 35 36 40 43 44 44 43 44 44 46 46 47 49 49 49 51 51 51
27 20 15 15 17 20 25 24 24 26 23 21 20 22 23 23 24 25 26 27 28 30 31 32 33 33 32 32 36 40 42 41 40 37 40 40 43 44 47 48 50 51 53
23 17 16 18 21 24 29 25 26 24 20 20 22 24 24 25 26 27 28 28 27 28 29 32 34 33 32 29 26 31 36 39 37 38 34 36 38 38 40 43 46 48 51
22 18 20 23 26 27 27 26 24 19 19 21 23 25 25 26 27 28 28 28 27 27 27 28 31 34 36 32 28 23 26 29 34 36 34 31 29 33 36 39 43 42 45
19 18 21 25 25 26 24 22 20 19 21 23 23 26 25 25 26 26 26 26 25 24 24 24 27 30 35 37 32 27 24 23 23 29 31 27 28 22 28 34 38 40 42
Wind_Direction
194 179 173 174 181 193 193 200 217 242 277 297 303 309 308 306 305 303 301 300 304 303 300 296 296 296 292 284 277 276 277 276 272 269 265 257 255 258 251 253 253 244 276
197 185 181 181 183 200 222 213 216 239 272 287 296 304 311 313 311 304 296 286 284 288 293 295 295 295 295 292 287 279 276 277 277 276 270 269 264 257 257 261 244 218 244
194 185 177 186 206 208 212 223 224 236 256 276 289 302 322 327 326 324 315 302 287 279 280 284 287 289 285 288 291 288 285 284 281 279 277 272 267 262 257 255 251 252 241
194 193 187 197 211 225 242 228 236 236 248 255 259 294 316 323 323 321 318 309 292 278 272 271 275 278 280 281 283 285 285 287 287 280 274 272 264 260 263 257 261 261 246
187 205 201 208 258 234 235 231 234 233 241 238 267 290 305 312 316 317 315 310 298 284 275 272 270 273 276 278 277 279 283 281 280 283 277 269 260 253 253 242 256 263 261
221 228 214 217 233 218 230 227 235 234 242 254 266 277 286 298 305 309 309 305 297 284 272 268 268 269 270 273 273 270 269 274 275 273 274 271 258 252 248 235 250 255 257
227 223 222 231 227 227 226 232 238 239 247 257 268 278 286 295 301 305 306 300 292 282 273 266 265 264 265 268 270 270 266 266 269 268 267 265 258 254 250 242 242 263 261
222 217 223 224 223 224 232 241 247 249 255 265 273 280 289 298 303 304 304 298 291 284 274 268 266 265 262 262 266 269 269 267 267 268 265 266 262 255 247 244 247 254 257
229 236 232 223 223 228 237 246 250 254 264 275 282 289 296 301 302 302 300 297 293 287 282 273 268 264 263 261 260 261 265 267 265 266 269 268 267 264 254 245 243 252 248
237 236 232 234 234 238 243 246 252 262 270 277 284 291 296 299 301 300 298 296 296 291 287 281 274 268 264 261 260 259 260 261 262 262 263 266 266 265 263 258 252 252 247
226 226 230 233 236 241 247 255 264 271 277 283 288 293 297 299 298 296 294 293 295 295 292 287 280 274 268 264 261 259 259 258 257 257 257 261 264 265 266 259 254 253 254
224 227 231 234 239 246 256 266 270 274 278 284 289 293 295 295 294 295 295 292 293 295 295 292 286 278 272 267 264 263 261 259 258 255 255 254 257 259 261 264 258 252 251
233 237 243 250 257 265 270 272 276 279 284 288 291 292 291 291 292 292 289 289 291 294 292 291 289 286 279 273 267 264 263 262 260 257 253 252 254 255 256 258 259 255 250
250 252 258 264 269 272 275 278 280 283 286 288 289 290 290 290 290 289 289 287 288 290 291 290 288 286 283 279 273 267 263 262 263 262 259 254 251 252 254 256 258 258 254
250 262 274 278 280 283 284 284 285 287 289 292 293 294 295 295 294 291 289 288 290 289 290 288 286 284 283 281 279 274 268 264 262 262 260 258 254 251 252 252 255 258 257
254 266 276 281 285 287 287 285 286 289 292 293 294 295 296 296 295 294 293 293 291 292 291 289 286 282 277 276 276 277 275 271 266 264 264 261 259 254 251 250 250 252 256
255 267 273 280 289 294 295 292 293 294 294 296 298 299 299 298 297 296 296 296 295 292 290 288 286 285 283 279 274 271 270 271 271 268 265 264 261 259 255 251 249 248 250
265 271 280 288 293 295 296 300 300 300 301 301 302 301 301 301 301 299 298 296 294 292 290 288 285 282 280 279 277 274 272 270 269 269 266 263 261 259 256 252 249 247 244
268 278 285 294 297 298 303 306 307 308 308 306 306 306 305 305 305 305 305 303 301 299 296 294 290 287 282 278 275 274 271 271 269 267 265 262 261 259 256 252 248 246 245
273 277 285 293 293 294 300 303 306 309 308 307 309 309 310 310 309 309 309 309 308 306 303 299 295 292 288 283 277 274 273 270 266 263 263 261 258 257 256 255 250 246 245
269 274 282 288 293 301 301 306 307 309 309 307 307 308 311 312 314 316 316 316 315 313 310 306 301 296 290 285 282 277 275 271 267 265 262 260 257 255 253 253 252 247 243
267 273 280 287 307 314 315 313 312 312 309 305 304 307 314 316 316 316 316 318 319 320 322 321 314 304 297 290 284 279 273 267 266 265 263 260 258 256 253 251 251 250 247
271 275 282 307 308 313 313 311 310 307 303 304 311 318 317 315 314 315 317 320 323 326 328 331 330 322 311 298 290 284 277 270 265 261 259 257 256 255 255 252 252 251 251
269 273 291 303 301 309 311 303 297 298 300 309 314 314 313 314 315 317 318 320 324 327 331 335 339 340 333 320 304 291 285 280 274 262 255 258 257 255 253 252 250 250 251
264 272 281 287 299 297 292 292 294 292 298 308 310 311 310 312 314 315 317 318 324 327 332 339 343 348 350 343 327 306 289 284 281 278 267 254 255 259 257 255 254 251 251
265 284 285 290 286 289 292 290 291 295 301 303 306 308 308 310 311 312 315 318 322 325 328 338 346 352 356 356 346 329 307 290 283 280 277 270 267 252 258 259 257 255 253
Height
3152 3153 3155 3157 3159 3163 3162 3163 3163 3164 3164 3164 3165 3164 3164 3163 3163 3163 3162 3161 3160 3160 3159 3158 3157 3157 3157 3156 3156 3156 3155 3155 3155 3155 3154 3154 3154 3153 3153 3154 3154 3154 3155
3150 3152 3154 3155 3156 3159 3162 3162 3162 3163 3163 3163 3163 3162 3162 3163 3163 3162 3162 3161 3160 3159 3159 3157 3156 3155 3155 3155 3155 3154 3154 3153 3153 3152 3152 3152 3153 3152 3152 3152 3153 3153 3153
3147 3150 3154 3155 3157 3158 3159 3161 3162 3162 3162 3162 3161 3161 3161 3161 3161 3160 3160 3159 3159 3158 3157 3156 3156 3154 3153 3153 3153 3153 3153 3151 3151 3150 3150 3150 3151 3151 3151 3151 3152 3152 3151
3148 3150 3152 3153 3156 3158 3160 3159 3161 3160 3161 3161 3160 3160 3159 3158 3159 3159 3157 3157 3156 3156 3155 3155 3154 3153 3153 3152 3151 3151 3151 3150 3150 3148 3148 3148 3149 3149 3150 3150 3150 3150 3151
3147 3150 3150 3152 3153 3153 3155 3156 3158 3158 3159 3159 3160 3159 3158 3157 3157 3156 3155 3154 3153 3153 3153 3153 3152 3152 3151 3150 3149 3148 3149 3148 3148 3147 3147 3146 3147 3147 3147 3148 3149 3149 3150
3146 3146 3147 3149 3150 3150 3153 3154 3156 3156 3157 3157 3157 3157 3156 3156 3155 3154 3152 3151 3150 3149 3149 3149 3149 3149 3149 3149 3148 3146 3146 3146 3146 3145 3144 3145 3145 3145 3146 3147 3147 3148 3148
3142 3145 3146 3147 3147 3149 3152 3152 3154 3155 3155 3155 3155 3154 3153 3152 3151 3150 3149 3147 3146 3145 3144 3144 3145 3145 3145 3146 3146 3144 3144 3143 3143 3143 3142 3142 3142 3142 3143 3144 3145 3145 3145
3138 3140 3142 3144 3146 3148 3150 3151 3152 3153 3153 3153 3152 3151 3149 3149 3148 3146 3144 3143 3142 3141 3140 3139 3140 3141 3141 3142 3142 3141 3141 3141 3140 3141 3140 3139 3139 3139 3140 3141 3141 3142 3143
3138 3139 3140 3142 3144 3145 3147 3149 3150 3150 3150 3150 3150 3148 3147 3145 3144 3142 3140 3138 3137 3136 3136 3135 3135 3135 3136 3137 3137 3137 3136 3137 3137 3137 3137 3137 3137 3136 3137 3138 3139 3139 3139
3137 3138 3139 3141 3142 3143 3145 3146 3147 3146 3146 3145 3145 3144 3143 3142 3140 3138 3136 3135 3134 3132 3131 3130 3130 3130 3130 3130 3131 3131 3131 3131 3133 3133 3133 3133 3133 3133 3133 3134 3134 3135 3136
3134 3135 3137 3139 3141 3142 3143 3144 3144 3143 3143 3142 3141 3139 3138 3137 3136 3134 3133 3130 3129 3128 3127 3126 3125 3125 3125 3124 3124 3125 3125 3125 3126 3127 3128 3129 3129 3129 3129 3130 3131 3131 3132
3133 3134 3135 3136 3138 3139 3140 3140 3139 3139 3139 3138 3136 3135 3134 3133 3131 3129 3128 3127 3124 3122 3121 3121 3120 3119 3118 3118 3118 3119 3118 3118 3119 3121 3122 3123 3122 3123 3125 3125 3126 3127 3128
3131 3133 3134 3136 3137 3137 3136 3135 3135 3135 3134 3133 3132 3130 3129 3127 3126 3124 3122 3121 3120 3118 3116 3115 3113 3113 3112 3112 3111 3111 3111 3111 3112 3113 3115 3116 3116 3116 3118 3119 3120 3121 3123
3127 3129 3130 3131 3130 3130 3130 3130 3130 3129 3128 3127 3127 3125 3123 3121 3119 3118 3117 3114 3113 3112 3110 3108 3107 3106 3105 3105 3104 3104 3103 3102 3103 3105 3107 3109 3110 3110 3111 3113 3114 3115 3117
3124 3126 3127 3128 3127 3127 3126 3126 3125 3124 3123 3122 3121 3120 3118 3116 3114 3112 3110 3108 3106 3104 3103 3101 3099 3098 3097 3096 3096 3095 3095 3095 3095 3095 3097 3099 3101 3102 3104 3105 3107 3109 3110
3122 3123 3123 3122 3122 3122 3121 3120 3119 3118 3117 3116 3114 3112 3111 3109 3108 3105 3103 3101 3099 3097 3095 3093 3091 3089 3088 3087 3087 3086 3086 3086 3086 3086 3087 3089 3092 3093 3095 3095 3098 3100 3102
3118 3118 3118 3117 3117 3116 3115 3114 3113 3112 3111 3109 3107 3106 3104 3102 3101 3099 3096 3094 3091 3089 3086 3084 3081 3079 3078 3076 3076 3076 3076 3077 3077 3077 3078 3079 3080 3083 3085 3086 3087 3090 3093
3113 3113 3113 3113 3112 3111 3110 3109 3108 3107 3105 3104 3102 3100 3097 3095 3093 3090 3088 3085 3083 3080 3077 3074 3072 3069 3067 3066 3064 3063 3063 3064 3067 3067 3066 3067 3069 3071 3074 3076 3077 3079 3082
3109 3109 3109 3108 3107 3106 3105 3104 3103 3101 3100 3098 3095 3093 3092 3089 3086 3084 3081 3078 3074 3071 3068 3064 3062 3058 3056 3054 3051 3052 3051 3053 3052 3053 3055 3055 3057 3059 3061 3063 3065 3066 3070
3104 3105 3105 3104 3103 3102 3101 3099 3097 3095 3093 3092 3089 3087 3084 3083 3080 3078 3075 3071 3067 3063 3059 3055 3051 3048 3044 3041 3040 3039 3040 3039 3040 3039 3042 3044 3045 3046 3048 3051 3053 3056 3059
3099 3100 3100 3100 3099 3097 3096 3095 3093 3090 3089 3087 3084 3083 3079 3077 3074 3071 3068 3065 3061 3057 3052 3047 3043 3039 3035 3029 3028 3027 3027 3026 3026 3027 3028 3031 3032 3034 3036 3037 3041 3043 3046
3094 3095 3095 3094 3094 3093 3091 3089 3087 3086 3084 3082 3079 3078 3074 3071 3069 3067 3063 3060 3056 3051 3046 3041 3036 3031 3025 3019 3014 3013 3014 3015 3014 3013 3014 3017 3019 3021 3022 3024 3026 3029 3031
3090 3092 3091 3089 3089 3087 3086 3083 3082 3080 3078 3078 3075 3072 3069 3067 3064 3061 3059 3054 3050 3046 3041 3035 3029 3021 3017 3012 3005 3001 2998 3000 3003 3003 3001 3004 3004 3008 3011 3012 3014 3017 3019
3086 3086 3085 3084 3084 3083 3081 3079 3078 3075 3075 3072 3070 3068 3065 3062 3059 3056 3054 3050 3045 3041 3036 3031 3024 3017 3009 3005 3000 2993 2987 2985 2988 2992 2993 2993 2994 2996 2998 3000 3002 3004 3007
3080 3080 3079 3079 3079 3079 3077 3075 3073 3072 3071 3068 3066 3064 3061 3058 3055 3052 3049 3046 3041 3037 3032 3027 3023 3014 3008 2999 2993 2988 2983 2978 2977 2978 2981 2985 2986 2985 2986 2988 2990 2993 2995
3076 3075 3075 3076 3075 3073 3071 3070 3070 3068 3067 3064 3062 3059 3056 3054 3051 3048 3044 3042 3038 3034 3031 3026 3021 3015 3008 2998 2990 2981 2978 2974 2972 2970 2970 2973 2977 2979 2976 2978 2980 2983 2985